Weather in Baltym

Russia / Sverdlovsk Oblast     56°59′46″N   60°36′23″E
temp.,
°C
wind,
m/s
gust,
m/s
humid.,
%
clouds,
%
prec.,
mm/h
press.,
hPa
HPBL,
m
16 may, sun
sun1623:00+18nnw2761100 1.2 1019151
02:00+16sw3677100 0.6 1019123
05:00+17wsw4137193 0.6 1019279
08:00+22w41256100 0.0 1019408
11:00+28w59315 0.0 10191338
14:00+31w69195 0.0 10183376
17:00+30w682045 0.0 10173520
20:00+26wsw510314 0.0 1017725
17 may, mon
mon1723:00+21wsw311455 0.0 1017270
02:00+20wsw413491 0.0 1018338
05:00+17wsw310600 0.0 1018218
08:00+22sw412456 0.0 1018473
11:00+27w7142695 0.0 10172759
14:00+28w7122516 0.0 10163347
17:00+29w6112417 0.0 10153461
20:00+25w511362 0.0 10151137
18 may, tue
tue1823:00+20w4105755 0.0 1016280
02:00+17w38695 0.1 1016204
05:00+16wnw410717 0.1 1016275
08:00+19wnw5952100 0.0 1016943
11:00+22wnw710375 0.0 10161789
14:00+24nw69325 0.0 10162431
17:00+23n773752 0.0 10161740
20:00+18nne585644 0.0 10181024
19 may, wed
wed1923:00+14nne597152 0.1 1022843
02:00+9nne488386 0.0 1024604
05:00+10ne467485 0.0 1026796
08:00+11ene346316 0.0 1027862
11:00+16ene234545 0.0 10261217
14:00+20ene2235100 0.0 10251473
17:00+21ene2231100 0.0 10251652
20:00+18ese22425 0.0 1024214
20 may, thu
thu2023:00+13se23585 0.0 102572
02:00+11ssw2564100 0.0 1026113
05:00+10ssw256926 0.0 1026112
08:00+17ssw354641 0.0 1025352
11:00+23wsw34335 0.0 10241359
14:00+26wsw35275 0.0 10222169
17:00+26wsw46260 0.0 10212265
20:00+23sw37370 0.0 1021418